Home > Weather > Maintal > Past weeks

Flag for Germany Past Weather in Maintal, Hesse, Germany — Yesterday and Last 2 Weeks

Now
57 °F

Broken clouds.


Feels Like: 57 °F
Forecast: 47 / 72 °F
Wind: 3 mph from Northeast

Location: Frankfurt-M-Flughafen Airport

Current Time: May 25, 2016 at 1:06:27 PM

Latest Report: May 25, 2016 at 12:20 PM


Visibility: N/A

Pressure: 29.98 "Hg

Humidity: 72%

Dew Point: 48 °F

Location of MaintalLocation

Past Weather in Maintal — Graph

°F

Maintal Temperature Yesterday

Maximum temperature yesterday: 55 °F (at 12:20 AM)
Minimum temperature yesterday: 52 °F (at 8:50 AM)
Average temperature yesterday: 53 °F

High & Low Weather Summary for the Past Weeks

 TemperatureHumidityPressure
High81 °F (May 22, 3:20 PM)100% (May 13, 11:50 PM)30.12 "Hg (May 13, 11:50 PM)
Low41 °F (May 15, 5:50 AM)24% (May 22, 3:50 PM)29.45 "Hg (May 12, 8:20 PM)
Average57 °F68%29.88 "Hg
* Reported May 10 12:20 PM — May 25 12:20 PM, Maintal, Weather by CustomWeather, © 2016

Note: Actual official high and low records may vary slightly from our data, if they occured in-between our weather recording intervals... More about our weather records

Advertising

Maintal Weather History for the Previous 24 Hours

Scroll right to see more
 ConditionsComfort  
Time TempWeatherWind HumidityBarometerVisibility
12:20 PM
Wed, May 25
57 °FBroken clouds.3 mph72%29.98 "HgN/A
11:20 AM55 °FPartly sunny.2 mph77%29.98 "HgN/A
10:50 AM55 °FPartly sunny.3 mph77%29.98 "HgN/A
10:20 AM55 °FBroken clouds.1 mph72%29.98 "HgN/A
9:50 AM55 °FPartly sunny.2 mph77%29.98 "HgN/A
9:20 AM54 °FPartly sunny.3 mph77%29.98 "HgN/A
8:50 AM54 °FPartly sunny.3 mph82%29.98 "HgN/A
8:20 AM54 °FPartly sunny.2 mph82%29.98 "HgN/A
7:50 AM54 °FPartly sunny.2 mph82%29.98 "HgN/A
7:20 AM52 °FBroken clouds.2 mph88%29.98 "HgN/A
6:50 AM52 °FPartly sunny.2 mph88%29.98 "HgN/A
6:20 AM50 °FPassing clouds.2 mph94%29.98 "HgN/A
5:50 AM50 °FPassing clouds.1 mph94%29.98 "HgN/A
5:20 AM50 °FPartly cloudy.No wind94%29.95 "HgN/A
4:50 AM50 °FPartly cloudy.2 mph94%29.98 "HgN/A
4:20 AM50 °FPartly cloudy.2 mph94%29.98 "HgN/A
3:50 AM50 °FPartly cloudy.1 mph94%29.98 "HgN/A
3:20 AM50 °FPassing clouds.2 mph94%29.98 "HgN/A
2:50 AM50 °FPassing clouds.1 mph94%29.98 "HgN/A
2:20 AM50 °FPartly cloudy.3 mph94%29.98 "HgN/A
1:50 AM50 °FPassing clouds.3 mph94%29.98 "HgN/A
1:20 AM50 °FPassing clouds.2 mph94%29.98 "HgN/A
12:50 AM50 °FPassing clouds.2 mph94%29.98 "HgN/A
12:20 AM50 °FPassing clouds.3 mph94%29.98 "HgN/A
11:50 PM
Tue, May 24
52 °FPartly cloudy.3 mph88%29.98 "HgN/A
11:20 PM52 °FPartly cloudy.2 mph88%29.98 "HgN/A
10:50 PM52 °FPartly cloudy.2 mph88%29.98 "HgN/A
10:20 PM52 °FPartly cloudy.2 mph88%29.98 "HgN/A
9:50 PM52 °FBroken clouds.2 mph88%29.98 "HgN/A
9:20 PM54 °FPartly sunny.6 mph77%29.98 "HgN/A
8:50 PM54 °FPartly sunny.6 mph82%29.98 "HgN/A
8:20 PM54 °FPartly sunny.7 mph77%29.98 "HgN/A
7:50 PM54 °FPartly sunny.8 mph77%29.98 "HgN/A
7:20 PM54 °FPartly sunny.8 mph77%29.98 "HgN/A
6:50 PM54 °FPartly sunny.8 mph82%29.98 "HgN/A
6:20 PM54 °FMore clouds than sun.9 mph82%29.98 "HgN/A
5:50 PM54 °FOvercast.10 mph77%29.98 "HgN/A
5:20 PM54 °FLight rain. Overcast.10 mph82%29.98 "HgN/A
4:50 PM54 °FLight rain. More clouds than sun.10 mph82%29.98 "HgN/A
4:20 PM54 °FLight rain. More clouds than sun.10 mph82%29.98 "HgN/A
3:50 PM54 °FLight rain. Mostly cloudy.13 mph82%29.98 "HgN/A
3:20 PM54 °FLight rain. More clouds than sun.10 mph88%29.98 "HgN/A
2:50 PM54 °FLight rain. More clouds than sun.13 mph88%29.98 "HgN/A
2:20 PM54 °FLight rain. Overcast.12 mph88%29.98 "HgN/A
1:50 PM52 °FRain. Overcast.12 mph88%29.98 "HgN/A
1:20 PM54 °FRain. Overcast.10 mph82%29.98 "HgN/A
Weather by CustomWeather, © 2016

See weather overviewHow to use our weather pages